User: anonymous   Login
Location: Unspecified
(40.8819°N, 0.0000°E)
Time: 04:49:26
(UTC+00:00)
Language:

TIGRISAT - Orbit

View from above orbital plane
View from above orbital plane
View from above satellite
View from above satellite

Ground track
Ground track

The orbit data is extracted from the following two-line orbital elements,

1 40043U 14033AK  24262.41207554  .00005888  00000-0  76647-3 0  9998
2 40043  97.7059  61.2233 0054302   0.8606 359.2690 14.79952163551249
Epoch (UTC): 18 September 2024 09:53:23
Eccentricity: 0.0054302
inclination: 97.7059°
perigee height: 591 km
apogee height: 667 km
right ascension of ascending node: 61.2233°
argument of perigee: 0.8606°
revolutions per day: 14.79952163
mean anomaly at epoch: 359.2690°
orbit number at epoch: 55124

The dashed part of the orbit path shows where the satellite is in the earth's shadow,  

DLR